Flag for U.S.A. Weather past 2 weeks in Bloomington, Illinois, U.S.A.

Now
35 °F

Light snow. Fog.


Feels Like: 26 °F
Forecast: 31 / 46 °F
Wind: 14 mph from Northwest

Location: Bloomington / Normal

Current Time: Dec 27, 2014 at 5:40:23 PM

Latest Report: Dec 27, 2014 at 4:56 PM


Visibility: 4 mi

Pressure: 30.15 "Hg

Humidity: 89%

Dew point: 32 °F

Location of BloomingtonLocation

Historic Weather in Bloomington — Graph

°F

Bloomington temperature yesterday

Maximum temperature yesterday: 54 °F (at 3:03 PM)
Minimum temperature yesterday: 34 °F (at 12:56 AM)
Average temperature yesterday: 44 °F

Past Weeks' High & Low Weather Summary

 TemperatureHumidityPressure
High54 °F (Dec 26, 3:03 PM)100% (Dec 14, 6:01 AM)30.40 "Hg (Dec 14, 6:01 AM)
Low18 °F (Dec 19, 4:56 AM)69% (Dec 19, 1:56 PM)29.54 "Hg (Dec 22, 10:04 PM)
Average36 °F91%30.07 "Hg
* Reported Dec 12 3:56 PM — Dec 27 3:56 PM, Bloomington, Weather by CustomWeather, © 2014

Note: Actual official high and low records may vary slightly from our data, if they occured in-between our weather recording intervals... More about our weather records

Advertising

Bloomington weather history for previous 24 hours

 ConditionsComfort  
Time TempWeatherWind HumidityBarometerVisibility
3:56 PM
Dec 27
36 °FPartly sunny.9 mph92%30.14 "Hg10 mi
2:56 PM36 °FLight snow. Fog.10 mph92%30.13 "Hg5 mi
1:56 PM37 °FLight rain. Partly sunny.13 mph89%30.12 "Hg7 mi
12:56 PM38 °FPartly sunny.14 mph86%30.09 "Hg10 mi
11:56 AM39 °FLow clouds.18 mph93%30.11 "Hg8 mi
10:56 AM42 °FFog.17 mph97%30.12 "Hg4 mi
9:56 AM48 °FLight rain. Fog.17 mph100%30.07 "Hg2 mi
8:56 AM47 °FFog.16 mph100%30.05 "Hg2 mi
7:56 AM46 °FFog.16 mph100%30.04 "Hg1 mi
6:56 AM46 °FFog.16 mph100%30.04 "Hg4 mi
5:56 AM46 °FFog.17 mph100%30.04 "Hg3 mi
4:56 AM45 °FFog.15 mph100%30.03 "Hg5 mi
3:56 AM46 °FLow clouds.16 mph97%30.01 "Hg8 mi
2:56 AM46 °FLow clouds.17 mph97%30.03 "Hg10 mi
1:56 AM46 °FLow clouds.18 mph97%30.04 "Hg10 mi
12:56 AM46 °FLight rain. Fog.20 mph97%30.03 "Hg2 mi
11:56 PM
Dec 26
47 °FLight rain. Fog.23 mph93%30.04 "Hg4 mi
10:56 PM45 °FPassing clouds.15 mph93%30.06 "Hg10 mi
9:56 PM45 °FClear.14 mph93%30.05 "Hg10 mi
8:56 PM46 °FOvercast.13 mph93%30.06 "Hg10 mi
7:56 PM45 °FOvercast.12 mph93%30.06 "Hg10 mi
6:56 PM42 °FClear.10 mph97%30.06 "Hg10 mi
5:56 PM44 °FClear.10 mph93%30.06 "Hg10 mi
Weather by CustomWeather, © 2014

See weather overviewHow to use our weather pages